User: anonymous   Login
Location: Unspecified
(0.0000°N, 0.0000°E)
Time: 18:16:44
(UTC+01:00)
Language:

KMS 4 - Orbit

View from above orbital plane
View from above orbital plane
View from above satellite
View from above satellite

Ground track
Ground track

The orbit data is extracted from the following two-line orbital elements,

1 41332U 16009A   19081.15614572  .00001631  00000-0  53414-4 0  9991
2 41332  97.3734 149.9178 0021647 249.2461 190.6103 15.32949558174255
Epoch (UTC): 22 March 2019 03:44:50
Eccentricity: 0.0021647
inclination: 97.3734°
perigee height: 452 km
apogee height: 482 km
right ascension of ascending node: 149.9178°
argument of perigee: 249.2461°
revolutions per day: 15.32949558
mean anomaly at epoch: 190.6103°
orbit number at epoch: 17425

The dashed part of the orbit path shows where the satellite is in the earth's shadow,  

DLR